TimeCET,TemperatureF,Dew PointF,Humidity,Sea Level PressureIn,VisibilityMPH,Wind Direction,Wind SpeedMPH,Gust SpeedMPH,PrecipitationIn,Events,Conditions,WindDirDegrees,DateUTC
12:25 AM,44.6,42.8,93,29.77,6.2,WSW,18.4,-,N/A,,Partly Cloudy,250,2013-02-03 23:25:00
12:55 AM,44.6,42.8,93,29.77,6.2,WSW,16.1,-,N/A,,Partly Cloudy,250,2013-02-03 23:55:00
1:00 AM,45,43,90,29.80,9,WSW,15.7,,,,Partly Cloudy,250,2013-02-04 00:00:00
1:25 AM,44.6,42.8,93,29.77,6.2,WSW,16.1,-,N/A,,Scattered Clouds,250,2013-02-04 00:25:00
1:55 AM,46.4,42.8,87,29.77,6.2,WSW,17.3,-,N/A,Rain,Light Rain,250,2013-02-04 00:55:00
2:25 AM,44.6,44.6,100,29.77,5.0,WSW,17.3,-,N/A,Rain,Light Rain,250,2013-02-04 01:25:00
2:55 AM,44.6,44.6,100,29.74,5.0,WSW,16.1,-,N/A,Rain,Light Rain,250,2013-02-04 01:55:00
3:25 AM,46.4,44.6,93,29.74,4.3,WSW,16.1,-,N/A,Rain,Light Rain,250,2013-02-04 02:25:00
3:55 AM,46.4,44.6,93,29.74,5.6,WSW,16.1,-,N/A,,Mostly Cloudy,250,2013-02-04 02:55:00
4:00 AM,46,44,89,29.74,7,WSW,17.9,,,Rain,Light Drizzle,250,2013-02-04 03:00:00
4:25 AM,46.4,44.6,93,29.71,1.7,West,19.6,-,N/A,,Drizzle,260,2013-02-04 03:25:00
4:55 AM,44.6,44.6,100,29.71,2.5,WSW,13.8,-,N/A,,Light Drizzle,250,2013-02-04 03:55:00
5:25 AM,44.6,44.6,100,29.71,6.2,WSW,16.1,-,N/A,,Mostly Cloudy,250,2013-02-04 04:25:00
5:55 AM,46.4,44.6,93,29.71,6.2,WSW,18.4,-,N/A,,Mostly Cloudy,250,2013-02-04 04:55:00
6:25 AM,46.4,44.6,93,29.68,6.2,WSW,18.4,-,N/A,,Mostly Cloudy,240,2013-02-04 05:25:00
6:55 AM,46.4,44.6,93,29.71,5.6,West,21.9,-,N/A,,Light Drizzle,260,2013-02-04 05:55:00
7:00 AM,46,44,90,29.71,3,West,22.4,,,Rain,Drizzle,260,2013-02-04 06:00:00
7:25 AM,46.4,44.6,93,29.71,1.9,West,24.2,35.7,N/A,Rain,Rain,260,2013-02-04 06:25:00
7:55 AM,46.4,44.6,93,29.71,6.2,West,24.2,-,N/A,Rain,Light Rain,260,2013-02-04 06:55:00
8:25 AM,46.4,44.6,93,29.71,6.2,West,23.0,-,N/A,,Scattered Clouds,260,2013-02-04 07:25:00
8:55 AM,46.4,44.6,93,29.71,6.2,West,21.9,-,N/A,,Scattered Clouds,260,2013-02-04 07:55:00
9:25 AM,48.2,44.6,87,29.71,6.2,West,24.2,-,N/A,,Partly Cloudy,270,2013-02-04 08:25:00
9:55 AM,48.2,44.6,87,29.71,6.2,West,27.6,-,N/A,,Partly Cloudy,270,2013-02-04 08:55:00
10:00 AM,47,44,86,29.74,12,West,24.6,,,,Partly Cloudy,270,2013-02-04 09:00:00
10:25 AM,46.4,44.6,93,29.74,6.2,West,24.2,-,N/A,Rain,Light Rain,270,2013-02-04 09:25:00
11:55 AM,48.2,39.2,71,29.77,-9999.0,West,26.5,-,N/A,,Clear,280,2013-02-04 10:55:00
12:25 PM,48.2,39.2,71,29.77,-9999.0,West,27.6,-,N/A,,Clear,280,2013-02-04 11:25:00
12:55 PM,48.2,37.4,66,29.77,-9999.0,WNW,25.3,-,N/A,,Clear,290,2013-02-04 11:55:00
1:00 PM,49,38,57,29.78,8,WNW,22.4,,,,Partly Cloudy,290,2013-02-04 12:00:00
1:25 PM,48.2,39.2,71,29.77,-9999.0,West,24.2,-,N/A,,Clear,280,2013-02-04 12:25:00
1:55 PM,48.2,37.4,66,29.77,-9999.0,West,23.0,-,N/A,,Clear,280,2013-02-04 12:55:00
2:25 PM,48.2,37.4,66,29.80,-9999.0,West,25.3,-,N/A,,Clear,280,2013-02-04 13:25:00
2:55 PM,48.2,37.4,66,29.77,-9999.0,West,24.2,35.7,N/A,,Clear,270,2013-02-04 13:55:00
3:25 PM,48.2,37.4,66,29.77,-9999.0,West,24.2,-,N/A,,Clear,270,2013-02-04 14:25:00
3:55 PM,46.4,35.6,66,29.77,6.2,West,23.0,-,N/A,,Partly Cloudy,260,2013-02-04 14:55:00
4:00 PM,47,36,56,29.79,8,West,20.1,,,,,260,2013-02-04 15:00:00
4:25 PM,46.4,37.4,71,29.77,6.2,WSW,20.7,-,N/A,,Partly Cloudy,250,2013-02-04 15:25:00
4:55 PM,46.4,35.6,66,29.77,6.2,WSW,20.7,-,N/A,,Scattered Clouds,250,2013-02-04 15:55:00
5:25 PM,44.6,37.4,76,29.77,6.2,WSW,19.6,-,N/A,,Partly Cloudy,250,2013-02-04 16:25:00
5:55 PM,44.6,37.4,76,29.77,6.2,WSW,18.4,-,N/A,,Partly Cloudy,240,2013-02-04 16:55:00
6:25 PM,46.4,37.4,71,29.77,6.2,WSW,18.4,-,N/A,,Partly Cloudy,250,2013-02-04 17:25:00
6:55 PM,44.6,37.4,76,29.77,6.2,WSW,21.9,-,N/A,,Scattered Clouds,250,2013-02-04 17:55:00
7:00 PM,45,37,66,29.79,9,WSW,22.4,,,Rain,Light Drizzle,250,2013-02-04 18:00:00
7:25 PM,44.6,37.4,76,29.77,6.2,WSW,19.6,-,N/A,,Partly Cloudy,250,2013-02-04 18:25:00
7:55 PM,44.6,37.4,76,29.77,6.2,WSW,20.7,-,N/A,,Scattered Clouds,250,2013-02-04 18:55:00
8:55 PM,44.6,35.6,71,29.74,-9999.0,WSW,20.7,-,N/A,,Clear,250,2013-02-04 19:55:00
9:25 PM,44.6,35.6,71,29.74,-9999.0,WSW,20.7,-,N/A,,Clear,240,2013-02-04 20:25:00
9:55 PM,44.6,37.4,76,29.74,-9999.0,WSW,20.7,-,N/A,,Clear,240,2013-02-04 20:55:00
10:00 PM,45,36,60,29.75,9,WSW,20.1,,,,Overcast,240,2013-02-04 21:00:00
10:25 PM,44.6,35.6,71,29.74,-9999.0,WSW,23.0,-,N/A,,Clear,250,2013-02-04 21:25:00
10:55 PM,44.6,33.8,66,29.71,6.2,WSW,21.9,-,N/A,,Partly Cloudy,250,2013-02-04 21:55:00
11:25 PM,44.6,35.6,71,29.71,6.2,WSW,20.7,32.2,N/A,,Partly Cloudy,250,2013-02-04 22:25:00
11:55 PM,44.6,35.6,71,29.68,6.2,WSW,19.6,-,N/A,,Mostly Cloudy,250,2013-02-04 22:55:00